Starlink 30799

operational
NORAD ID: 58121 Int'l Des: 2023-162 Owner: SPXS Country: US Constellation: starlink
LEOCIRCULAR

About Starlink 30799

Description loading...

Live Position

Loading 3D Globe...

Upcoming Passes

Altitude History

Altitude vs Time

uPlot chart will show altitude changes over time

Two-Line Element Set

1 58121U 23162D 25258.56589763 -.00000350 00000-0 -10836-4 0 9994
2 58121 43.0043 4.9228 0001508 271.3341 88.7329 15.02535646105957
Epoch: Sep 15, 2025 • Age: 11 hours

Current Status

Altitude 571.1 km
Velocity 7.58 km/s
Sub-Earth Point -42.50°S, 76.31°W
Launch Date Oct 22, 2023
Age 1.9 years
Type internet

Technical Details

Classification Payload
Mass 730.00 kg
Dry Mass 700.00 kg
Total Mass 730.00 kg
Length 0.30 m
Diameter 4.10 m
Span 29.00 m
Shape Box + pan
Manufacturer SPXS
Bus Type Starlink V2M
Phase Status In Orbit
Owner/State SPXS/US

Large Constellations

Loading constellations...